Simultaneous Nadir Overpasses (SNOs) Predictions

Prediction of SNOs between AQUA and NPP Satellite Orbit:

Table of predicted SNOs for the next 14.0 days since TLE Epoch: 5/31/2014
Index Date (AQUA) Time (AQUA) Lat,Lon (AQUA) SZA (AQUA ) Date (NPP) Time (NPP) Lat,Lon (NPP) SZA (NPP ) Distance(km) Time Diff (sec)
1 06/01/2014 10:03:37 58.91,-113.17 93.22 06/01/2014 10:02:36 58.91,-113.16 93.29 0.69 61
2 06/01/2014 10:51:23 -64.82, 58.88 92.67 06/01/2014 10:51:37 -64.82, 58.90 92.69 0.85 14
3 06/04/2014 02:19:40 60.47, 3.71 91.39 06/04/2014 02:19:07 60.46, 3.70 91.44 1.09 33
4 06/04/2014 03:07:31 -66.06, 175.93 94.21 06/04/2014 03:08:13 -66.06, 175.94 94.26 0.38 42
5 06/06/2014 18:35:38 62.23, 120.85 89.40 06/06/2014 18:35:33 62.22, 120.83 89.42 1.57 5
6 06/06/2014 19:23:36 -67.38, -66.81 95.81 06/06/2014 19:24:46 -67.38, -66.79 95.89 1.21 70
7 06/09/2014 10:03:54 -58.11, 66.31 86.71 06/09/2014 10:03:02 -58.11, 66.31 86.65 0.04 52
8 06/09/2014 10:51:35 64.08,-121.78 87.35 06/09/2014 10:51:58 64.07,-121.79 87.33 0.68 23
9 06/12/2014 02:19:42 -60.48,-176.30 89.21 06/12/2014 02:19:18 -60.49,-176.28 89.19 0.64 24




NCC Satellite Simultaneous Nadir Overpasses (SNOs) Prediction Service
